Regional Weather Roundup
Issued by NWS Cleveland, OH

Home | Current Version | Previous Version | Graphics & Text | Print | Product List | Glossary On
Versions: 1 2 3 4 5 6 7 8 9 10 11 12 13 14 15 16 17 18 19 20 21 22 23 24 25 26 27 28 29 30 31 32 33 34 35 36 37 38 39 40 41 42 43 44 45 46 47 48 49 50
000
ASUS41 KCLE 232000
RWRCLE
OHIO REGIONAL WEATHER ROUNDUP
NATIONAL WEATHER SERVICE WILMINGTON, OH
400 PM EDT MON OCT 23 2017

NOTE: "FAIR" INDICATES FEW OR NO CLOUDS BELOW 12,000 FEET WITH NO
SIGNIFICANT WEATHER AND/OR OBSTRUCTIONS TO VISIBILITY.

OHZ001>008-015>018-024>027-034-035-043-044-232100-
   NORTHWEST OHIO

CITY           SKY/WX    TMP DP  RH WIND       PRES   REMARKS
DEFIANCE       LGT RAIN  63  58  83 S9        29.57F
FINDLAY        CLOUDY    64  58  80 S13       29.60F
TOLEDO EXPRESS LGT RAIN  64  64 100 SE6       29.57F FOG
TOLEDO EXEC    LGT RAIN  65  63  93 SE9       29.59F FOG
LIMA           LGT RAIN  63  59  87 S14       29.62F
$$

OHZ009>014-019>023-028>033-038-089-232100-
   NORTHEAST OHIO

CITY           SKY/WX    TMP DP  RH WIND       PRES   REMARKS
CLE-HOPKINS    CLOUDY    66  62  87 SE17G26   29.69F
CLE-LAKEFRONT  LGT RAIN  65  60  84 SE18G28   29.68F
CUY CO. ARPT   LGT RAIN  64  61  88 SE16G25   29.71F FOG
LORAIN-ELYRIA  CLOUDY    64  57  78 S16G29    29.66
ASHTABULA      LGT RAIN  63  61  93 SE17G23   29.78F
AKRON-CANTON   LGT RAIN  64  59  83 SE22G31   29.72F
WOOSTER        NOT AVBL
MANSFIELD      LGT RAIN  63  62  97 SE15G24   29.64F FOG
YOUNGSTOWN     LGT RAIN  62  61  96 SE17G23   29.78F
$$

OHZ042-051>053-060>062-070>072-077>081-232100-
  SOUTHWEST OHIO

CITY           SKY/WX    TMP DP  RH WIND       PRES   REMARKS
CINC-COVINGTON LGT RAIN  60  60 100 S6        29.69F
CINC-LUNKEN    LGT RAIN  62  59  90 SW8       29.69F
HAMILTON       LGT RAIN  62  60  93 CALM      29.67F
DAYTON         NOT AVBL
WRIGHT-PAT AFB NOT AVBL
DAYTON GENERAL LGT RAIN  61  58  90 S8        29.67F
WILMINGTON     LGT RAIN  59  58  96 S13       29.69F
$$

OHZ036-037-039>041-045>050-054>059-063>069-073>076-082>088-232100-
  CENTRAL AND SOUTHEAST OHIO

CITY           SKY/WX    TMP DP  RH WIND       PRES   REMARKS
COLUMBUS       LGT RAIN  63  61  93 S15G22    29.70R
OSU AIRPORT    CLOUDY    63  60  90 S16G25    29.69S
BOLTON FIELD   CLOUDY    63  59  88 S16       29.71S
RICKENBACK AFB NOT AVBL
NEWARK         LGT RAIN  61  58  90 S12G20    29.71R
MARION         CLOUDY    61  58  90 S13       29.66S
LANCASTER      CLOUDY    61  32  33 S12       29.73F
ZANESVILLE     LGT RAIN  61  57  87 SW14G31   29.72S FOG
NEW PHILLY     LGT RAIN  65  61  87 SE15      29.70F
$$




USA.gov is the U.S. government's official web portal to all federal, state and local government web resources and services.